| time (UTC) | temp F | wind direction | speed MPH | gust MPH | rain 1hr in | rain 24hr in | rain mn in | humidity % | barometer mb |
| 20260508233055 | 55 | 123 | 0.0 | 2.0 | 0.00 | 0.00 | 0.00 | 78 | 1019.4 |
| 20260508230332 | 56 | 119 | 1.0 | 3.0 | 0.00 | 0.00 | 0.00 | 76 | 1019.4 |
| 20260508230023 | 56 | 119 | 2.0 | 3.0 | 0.00 | 0.00 | 0.00 | 76 | 1019.3 |
| 20260508223020 | 56 | 355 | 1.0 | 3.0 | 0.00 | 0.00 | 0.00 | 75 | 1019.6 |
| 20260508220317 | 57 | 323 | 3.0 | 4.0 | 0.00 | 0.00 | 0.00 | 74 | 1019.8 |
| 20260508220055 | 57 | 284 | 0.0 | 4.0 | 0.00 | 0.00 | 0.00 | 74 | 1019.7 |
| 20260508220013 | 57 | 284 | 0.0 | 4.0 | 0.00 | 0.00 | 0.00 | 74 | 1019.7 |
| 20260508213038 | 57 | 340 | 3.0 | 8.0 | 0.00 | 0.00 | 0.00 | 75 | 1019.8 |
| 20260508210338 | 56 | 307 | 4.0 | 9.0 | 0.00 | 0.00 | 0.00 | 74 | 1019.9 |
| 20260508210057 | 56 | 339 | 3.0 | 7.0 | 0.00 | 0.00 | 0.00 | 75 | 1019.9 |
| 20260508210015 | 56 | 339 | 3.0 | 7.0 | 0.00 | 0.00 | 0.00 | 75 | 1019.9 |
| 20260508203121 | 58 | 304 | 6.0 | 13.0 | 0.00 | 0.00 | 0.00 | 72 | 1020.2 |
| 20260508200314 | 60 | 302 | 3.0 | 9.0 | 0.00 | 0.00 | 0.00 | 72 | 1020.2 |
| 20260508200031 | 60 | 343 | 4.0 | 9.0 | 0.00 | 0.00 | 0.00 | 71 | 1020.4 |
| 20260508193057 | 59 | 296 | 3.0 | 10.0 | 0.00 | 0.00 | 0.00 | 74 | 1020.6 |
| 20260508190415 | 59 | 311 | 5.0 | 10.0 | 0.00 | 0.00 | 0.00 | 71 | 1020.8 |
| 20260508190009 | 59 | 66 | 4.0 | 10.0 | 0.00 | 0.00 | 0.00 | 70 | 1020.8 |
| 20260508183024 | 59 | 306 | 5.0 | 11.0 | 0.00 | 0.00 | 0.00 | 71 | 1021.2 |
| 20260508180334 | 58 | 9 | 4.0 | 10.0 | 0.00 | 0.00 | 0.00 | 72 | 1021.4 |
| 20260508180009 | 58 | 316 | 6.0 | 10.0 | 0.00 | 0.00 | 0.00 | 74 | 1021.4 |
| 20260508173138 | 57 | 355 | 2.0 | 11.0 | 0.00 | 0.00 | 0.00 | 75 | 1021.9 |
| 20260508170434 | 56 | 290 | 5.0 | 9.0 | 0.00 | 0.00 | 0.00 | 76 | 1022.2 |
| 20260508170331 | 56 | 290 | 5.0 | 9.0 | 0.00 | 0.00 | 0.00 | 76 | 1022.2 |
| 20260508170047 | 57 | 214 | 5.0 | 9.0 | 0.00 | 0.00 | 0.00 | 77 | 1022.2 |
| 20260508163049 | 54 | 290 | 5.0 | 8.0 | 0.00 | 0.00 | 0.00 | 81 | 1022.3 |
| 20260508160319 | 52 | 314 | 3.0 | 7.0 | 0.00 | 0.00 | 0.00 | 81 | 1022.8 |
| 20260508160041 | 52 | 312 | 2.0 | 7.0 | 0.00 | 0.00 | 0.00 | 81 | 1022.8 |
| 20260508153105 | 53 | 305 | 5.0 | 10.0 | 0.00 | 0.00 | 0.00 | 80 | 1022.6 |
| 20260508150339 | 54 | 334 | 2.0 | 8.0 | 0.00 | 0.00 | 0.00 | 80 | 1022.5 |
| 20260508150012 | 54 | 332 | 4.0 | 8.0 | 0.00 | 0.00 | 0.00 | 79 | 1022.5 |
| 20260508143031 | 53 | 279 | 4.0 | 8.0 | 0.00 | 0.00 | 0.00 | 84 | 1022.5 |
| 20260508140310 | 52 | 360 | 3.0 | 5.0 | 0.00 | 0.00 | 0.00 | 84 | 1022.5 |
| 20260508140053 | 52 | 311 | 1.0 | 5.0 | 0.00 | 0.00 | 0.00 | 85 | 1022.6 |
| 20260508140011 | 52 | 311 | 1.0 | 5.0 | 0.00 | 0.00 | 0.00 | 85 | 1022.6 |
| 20260508133033 | 51 | 300 | 6.0 | 12.0 | 0.00 | 0.00 | 0.00 | 86 | 1022.8 |
| 20260508130347 | 52 | 292 | 3.0 | 5.0 | 0.00 | 0.00 | 0.00 | 83 | 1022.6 |
| 20260508130042 | 52 | 288 | 3.0 | 5.0 | 0.00 | 0.00 | 0.00 | 83 | 1022.5 |
| 20260508123045 | 51 | 253 | 3.0 | 7.0 | 0.00 | 0.00 | 0.00 | 83 | 1022.3 |
| 20260508120320 | 49 | 252 | 3.0 | 6.0 | 0.00 | 0.00 | 0.00 | 84 | 1022.2 |
| 20260508120012 | 49 | 260 | 1.0 | 6.0 | 0.00 | 0.00 | 0.00 | 84 | 1022.2 |
| 20260508113117 | 47 | 221 | 2.0 | 5.0 | 0.00 | 0.00 | 0.00 | 85 | 1022.1 |
| 20260508110356 | 46 | 217 | 2.0 | 4.0 | 0.00 | 0.00 | 0.00 | 85 | 1022.0 |
| 20260508110025 | 46 | 202 | 1.0 | 3.0 | 0.00 | 0.00 | 0.00 | 85 | 1021.9 |
| 20260508103021 | 47 | 202 | 1.0 | 4.0 | 0.00 | 0.00 | 0.00 | 82 | 1021.5 |
| 20260508100319 | 47 | 227 | 2.0 | 4.0 | 0.00 | 0.00 | 0.00 | 81 | 1021.7 |
| 20260508100015 | 47 | 304 | 1.0 | 5.0 | 0.00 | 0.00 | 0.00 | 81 | 1021.8 |
| 20260508093017 | 47 | 298 | 1.0 | 5.0 | 0.00 | 0.00 | 0.00 | 79 | 1021.7 |
| 20260508090342 | 48 | 240 | 1.0 | 8.0 | 0.00 | 0.00 | 0.00 | 77 | 1021.8 |
| 20260508090056 | 48 | 227 | 2.0 | 8.0 | 0.00 | 0.00 | 0.00 | 77 | 1021.8 |
| 20260508083012 | 48 | 230 | 3.0 | 13.0 | 0.00 | 0.00 | 0.00 | 75 | 1021.6 |
| 20260508080331 | 47 | 211 | 4.0 | 8.0 | 0.00 | 0.00 | 0.00 | 74 | 1021.7 |
| 20260508080033 | 47 | 243 | 3.0 | 7.0 | 0.00 | 0.00 | 0.00 | 75 | 1021.6 |
| 20260508073047 | 47 | 241 | 2.0 | 5.0 | 0.00 | 0.00 | 0.00 | 77 | 1021.8 |
| 20260508070349 | 46 | 238 | 1.0 | 4.0 | 0.00 | 0.00 | 0.00 | 78 | 1021.8 |
| 20260508070048 | 45 | 238 | 1.0 | 4.0 | 0.00 | 0.00 | 0.00 | 78 | 1021.9 |
| 20260508063023 | 45 | 240 | 0.0 | 0.0 | 0.00 | 0.00 | 0.00 | 80 | 1022.0 |
| 20260508060359 | 45 | 240 | 1.0 | 2.0 | 0.00 | 0.00 | 0.00 | 77 | 1022.3 |
| 20260508060037 | 45 | 240 | 1.0 | 2.0 | 0.00 | 0.00 | 0.00 | 78 | 1022.3 |
| 20260508053013 | 47 | 202 | 2.0 | 4.0 | 0.00 | 0.00 | 0.00 | 70 | 1022.4 |
| 20260508050326 | 47 | 257 | 1.0 | 4.0 | 0.00 | 0.00 | 0.00 | 69 | 1022.7 |
| 20260508050020 | 47 | 267 | 2.0 | 5.0 | 0.00 | 0.00 | 0.00 | 69 | 1022.8 |
| 20260508043014 | 46 | 219 | 2.0 | 4.0 | 0.00 | 0.00 | 0.00 | 74 | 1022.6 |
| 20260508040311 | 44 | 196 | 2.0 | 4.0 | 0.00 | 0.00 | 0.00 | 79 | 1022.5 |
| 20260508040039 | 44 | 196 | 2.0 | 4.0 | 0.00 | 0.00 | 0.00 | 79 | 1022.5 |
| 20260508033042 | 42 | 229 | 2.0 | 4.0 | 0.00 | 0.00 | 0.00 | 82 | 1022.4 |
| 20260508030350 | 41 | 240 | 1.0 | 3.0 | 0.00 | 0.00 | 0.00 | 85 | 1022.5 |
| 20260508030043 | 41 | 279 | 1.0 | 3.0 | 0.00 | 0.00 | 0.00 | 86 | 1022.5 |
| 20260508023023 | 42 | 285 | 1.0 | 2.0 | 0.00 | 0.00 | 0.00 | 86 | 1022.6 |
| 20260508020318 | 43 | 285 | 1.0 | 2.0 | 0.00 | 0.00 | 0.00 | 80 | 1022.5 |
| 20260508020100 | 44 | 285 | 0.0 | 1.0 | 0.00 | 0.00 | 0.00 | 79 | 1022.4 |
| 20260508013019 | 47 | 285 | 1.0 | 2.0 | 0.00 | 0.00 | 0.00 | 74 | 1022.5 |
| 20260508010419 | 49 | 307 | 3.0 | 7.0 | 0.00 | 0.00 | 0.00 | 68 | 1022.3 |
| 20260508010101 | 49 | 287 | 2.0 | 3.0 | 0.00 | 0.00 | 0.00 | 67 | 1022.3 |
| 20260508003019 | 51 | 302 | 4.0 | 11.0 | 0.00 | 0.00 | 0.00 | 61 | 1022.2 |
| 20260508000359 | 52 | 273 | 6.0 | 14.0 | 0.00 | 0.00 | 0.00 | 55 | 1022.0 |
| 20260508000101 | 52 | 301 | 4.0 | 14.0 | 0.00 | 0.00 | 0.00 | 55 | 1021.9 |